• In Czech Republic
  • List of Countries
  • For 7 days
  • Water Temperature
  • Satellite Maps
  • Weather Map
  • Weather Widgets
  • user-avatar
    Login

    Hourly Weather Pokigrov

    Today, 23 February, Friday

    Time Temperature Precipitation Wind Pressure Humidity
    00:00 +21°C° 0 mm 0 mps 753 mmHg 97%
    01:00 +21°C° 0 mm 0 mps 753 mmHg 98%
    02:00 +21°C° 0 mm 0 mps 753 mmHg 98%
    03:00 +21°C° 0 mm 0 mps 752 mmHg 98%
    04:00 +21°C° 0 mm 0 mps 752 mmHg 98%
    05:00 +21°C° 0 mm 0 mps 752 mmHg 98%
    06:00 +22°C° 0 mm 0 mps 753 mmHg 96%
    07:00 +23°C° 0 mm 0 mps 753 mmHg 94%
    08:00 +23°C° 0 mm 0 mps 753 mmHg 91%
    09:00 +27°C° 0.1 mm 1 mps 753 mmHg 82%
    10:00 +29°C° 0.1 mm 1 mps 754 mmHg 73%
    11:00 +31°C° 0.1 mm 1 mps 754 mmHg 64%
    12:00 +31°C° 0.5 mm 1 mps 753 mmHg 67%
    13:00 +30°C° 0.5 mm 2 mps 752 mmHg 69%
    14:00 +30°C° 0.5 mm 2 mps 751 mmHg 72%
    15:00 +29°C° 0.7 mm 2 mps 751 mmHg 78%
    16:00 +28°C° 0.7 mm 2 mps 751 mmHg 84%
    17:00 +27°C° 0.7 mm 1 mps 750 mmHg 89%
    18:00 +26°C° 0.4 mm 1 mps 751 mmHg 91%
    19:00 +25°C° 0.4 mm 1 mps 751 mmHg 93%
    20:00 +25°C° 0.4 mm 1 mps 752 mmHg 95%
    21:00 +24°C° 0 mm 1 mps 752 mmHg 95%
    22:00 +24°C° 0 mm 1 mps 753 mmHg 96%
    23:00 +24°C° 0 mm 1 mps 753 mmHg 96%

    Tomorrow, 24 February, Saturday

    Time Temperature Precipitation Wind Pressure Humidity
    00:00 +24°C° 0 mm 1 mps 752 mmHg 97%
    01:00 +24°C° 0 mm 1 mps 752 mmHg 97%
    02:00 +21°C° 0 mm 0 mps 751 mmHg 97%
    03:00 +21°C° 0 mm 0 mps 751 mmHg 97%
    04:00 +21°C° 0 mm 0 mps 751 mmHg 98%
    05:00 +21°C° 0 mm 0 mps 751 mmHg 98%
    06:00 +22°C° 0 mm 0 mps 752 mmHg 96%
    07:00 +23°C° 0 mm 0 mps 752 mmHg 93%
    08:00 +23°C° 0 mm 0 mps 753 mmHg 91%
    09:00 +25°C° 0.1 mm 0 mps 753 mmHg 83%
    10:00 +29°C° 0.1 mm 1 mps 753 mmHg 74%
    11:00 +30°C° 0.1 mm 1 mps 753 mmHg 66%
    12:00 +31°C° 0.1 mm 1 mps 752 mmHg 61%
    13:00 +32°C° 0.1 mm 1 mps 751 mmHg 57%
    14:00 +33°C° 0.1 mm 1 mps 750 mmHg 52%
    15:00 +32°C° 0.1 mm 1 mps 750 mmHg 59%
    16:00 +31°C° 0.1 mm 1 mps 750 mmHg 65%
    17:00 +30°C° 0.1 mm 1 mps 750 mmHg 71%
    18:00 +28°C° 0.1 mm 1 mps 751 mmHg 79%
    19:00 +27°C° 0.1 mm 1 mps 751 mmHg 86%
    20:00 +25°C° 0.1 mm 1 mps 752 mmHg 93%
    21:00 +25°C° 0 mm 1 mps 752 mmHg 93%
    22:00 +25°C° 0 mm 1 mps 753 mmHg 94%
    23:00 +24°C° 0 mm 1 mps 753 mmHg 95%

    Day after tomorrow, 25 February, Sunday

    Time Temperature Precipitation Wind Pressure Humidity
    00:00 +24°C° 0 mm 1 mps 752 mmHg 95%
    01:00 +24°C° 0 mm 1 mps 752 mmHg 95%
    02:00 +24°C° 0 mm 1 mps 751 mmHg 95%
    03:00 +24°C° 0 mm 1 mps 751 mmHg 96%
    04:00 +21°C° 0 mm 0 mps 752 mmHg 96%
    05:00 +21°C° 0 mm 0 mps 752 mmHg 96%
    06:00 +22°C° 0 mm 0 mps 752 mmHg 92%
    07:00 +25°C° 0 mm 1 mps 753 mmHg 88%
    08:00 +26°C° 0 mm 1 mps 753 mmHg 84%
    09:00 +28°C° 0 mm 1 mps 753 mmHg 74%
    10:00 +30°C° 0 mm 1 mps 753 mmHg 64%
    11:00 +32°C° 0 mm 1 mps 753 mmHg 54%
    12:00 +33°C° 0 mm 1 mps 752 mmHg 52%
    13:00 +33°C° 0 mm 1 mps 751 mmHg 50%
    14:00 +34°C° 0 mm 1 mps 750 mmHg 48%
    15:00 +33°C° 0 mm 1 mps 750 mmHg 52%
    16:00 +32°C° 0 mm 1 mps 750 mmHg 57%
    17:00 +31°C° 0 mm 1 mps 750 mmHg 62%
    18:00 +29°C° 0 mm 1 mps 750 mmHg 70%
    19:00 +28°C° 0 mm 1 mps 751 mmHg 78%
    20:00 +26°C° 0 mm 2 mps 752 mmHg 86%
    21:00 +26°C° 0 mm 1 mps 752 mmHg 88%
    22:00 +25°C° 0 mm 1 mps 752 mmHg 89%
    23:00 +25°C° 0 mm 1 mps 753 mmHg 91%

    26 February, Monday

    Time Temperature Precipitation Wind Pressure Humidity
    00:00 +24°C° 0 mm 1 mps 752 mmHg 93%
    01:00 +24°C° 0 mm 1 mps 752 mmHg 94%
    02:00 +24°C° 0 mm 1 mps 752 mmHg 96%
    03:00 +24°C° 0 mm 1 mps 752 mmHg 97%
    04:00 +21°C° 0 mm 0 mps 752 mmHg 97%
    05:00 +21°C° 0 mm 0 mps 752 mmHg 98%
    06:00 +24°C° 0 mm 1 mps 752 mmHg 93%
    07:00 +25°C° 0 mm 1 mps 753 mmHg 88%
    08:00 +26°C° 0 mm 1 mps 754 mmHg 83%
    09:00 +28°C° 0 mm 1 mps 753 mmHg 73%
    10:00 +30°C° 0 mm 1 mps 753 mmHg 64%
    11:00 +32°C° 0 mm 1 mps 753 mmHg 55%
    12:00 +33°C° 0 mm 1 mps 752 mmHg 51%
    13:00 +34°C° 0 mm 1 mps 751 mmHg 46%
    14:00 +35°C° 0 mm 1 mps 750 mmHg 42%
    15:00 +34°C° 0 mm 1 mps 750 mmHg 46%
    16:00 +33°C° 0 mm 1 mps 750 mmHg 50%
    17:00 +32°C° 0 mm 1 mps 750 mmHg 55%
    18:00 +30°C° 0 mm 1 mps 750 mmHg 60%
    19:00 +28°C° 0 mm 1 mps 751 mmHg 65%
    20:00 +27°C° 0 mm 1 mps 751 mmHg 70%
    21:00 +26°C° 0 mm 1 mps 752 mmHg 74%
    22:00 +25°C° 0 mm 1 mps 752 mmHg 78%
    23:00 +25°C° 0 mm 1 mps 752 mmHg 83%

    27 February, Tuesday

    Time Temperature Precipitation Wind Pressure Humidity
    00:00 +24°C° 0 mm 1 mps 752 mmHg 86%
    01:00 +24°C° 0 mm 1 mps 751 mmHg 88%
    02:00 +21°C° 0 mm 0 mps 751 mmHg 91%
    03:00 +21°C° 0 mm 0 mps 751 mmHg 92%
    04:00 +21°C° 0 mm 0 mps 751 mmHg 94%
    05:00 +21°C° 0 mm 0 mps 751 mmHg 95%
    06:00 +22°C° 0 mm 0 mps 752 mmHg 91%
    07:00 +23°C° 0 mm 0 mps 752 mmHg 86%
    08:00 +26°C° 0 mm 1 mps 753 mmHg 82%
    09:00 +28°C° 0 mm 1 mps 753 mmHg 74%
    10:00 +30°C° 0 mm 1 mps 752 mmHg 67%
    11:00 +32°C° 0 mm 1 mps 752 mmHg 59%
    12:00 +32°C° 0.2 mm 1 mps 751 mmHg 57%
    13:00 +33°C° 0.2 mm 1 mps 750 mmHg 56%
    14:00 +34°C° 0.2 mm 1 mps 749 mmHg 54%
    15:00 +32°C° 0.5 mm 1 mps 749 mmHg 63%
    16:00 +30°C° 0.5 mm 2 mps 749 mmHg 73%
    17:00 +28°C° 0.5 mm 2 mps 749 mmHg 83%
    18:00 +27°C° 0.1 mm 2 mps 750 mmHg 87%
    19:00 +26°C° 0.1 mm 2 mps 750 mmHg 90%
    20:00 +25°C° 0.1 mm 1 mps 751 mmHg 94%
    21:00 +25°C° 0 mm 1 mps 751 mmHg 95%
    22:00 +25°C° 0 mm 1 mps 752 mmHg 95%
    23:00 +24°C° 0 mm 1 mps 752 mmHg 96%

    28 February, Wednesday

    Time Temperature Precipitation Wind Pressure Humidity
    00:00 +24°C° 0 mm 1 mps 752 mmHg 96%
    01:00 +24°C° 0 mm 1 mps 751 mmHg 97%
    02:00 +24°C° 0 mm 1 mps 751 mmHg 97%
    03:00 +22°C° 0 mm 0 mps 751 mmHg 97%
    04:00 +21°C° 0 mm 0 mps 751 mmHg 97%
    05:00 +21°C° 0 mm 0 mps 751 mmHg 97%
    06:00 +22°C° 0 mm 0 mps 752 mmHg 94%
    07:00 +23°C° 0 mm 0 mps 752 mmHg 91%
    08:00 +26°C° 0 mm 1 mps 753 mmHg 87%
    09:00 +28°C° 0.1 mm 1 mps 753 mmHg 79%
    10:00 +30°C° 0.1 mm 1 mps 752 mmHg 70%
    11:00 +32°C° 0.1 mm 1 mps 752 mmHg 61%
    12:00 +32°C° 0.3 mm 1 mps 751 mmHg 62%
    13:00 +33°C° 0.3 mm 1 mps 750 mmHg 62%
    14:00 +31°C° 0.3 mm 0 mps 749 mmHg 62%
    15:00 +32°C° 0.7 mm 1 mps 749 mmHg 70%
    16:00 +30°C° 0.7 mm 1 mps 749 mmHg 78%
    17:00 +29°C° 0.7 mm 1 mps 749 mmHg 86%
    18:00 +28°C° 0.7 mm 1 mps 750 mmHg 89%
    19:00 +26°C° 0.7 mm 1 mps 751 mmHg 92%
    20:00 +25°C° 0.7 mm 1 mps 751 mmHg 95%
    21:00 +25°C° 0.4 mm 1 mps 752 mmHg 96%
    22:00 +25°C° 0.4 mm 1 mps 752 mmHg 97%
    23:00 +25°C° 0.4 mm 1 mps 752 mmHg 97%
    Show more